カタログに戻る

STARLINK-1810

運用中通信VLEO
NORAD 46709·PAYLOAD·🇺🇸 United States

打ち上げ Oct 18, 2020 から Cape Canaveral Space Force Station

Loading…

次のパス (今後24時間)

TLE

最新Source: CelesTrak SupGP

元期: Sep 15, 2026, 02:52 UTC

1 46709C 20073AR  26258.11993056  .00294100  00000+0  95441-3 0  2584
2 46709  53.0293  22.1135 0007493 325.4639  91.9376 15.89835378    12

AllMySatでSTARLINK-1810をリアルタイム追跡

Download on the App Store